Location: Newark
(39.6867°N, 100.6772°W)
Time: 23:58:22
(UTC+00:00)

Vanguard 1 - Visible Passes

Search period start: 14 October 2019 00:00
Search period end: 24 October 2019 00:00
Orbit: 653 x 3830 km, 34.3° (Epoch: 14 October)

Date Brightness Start Highest point End Pass type
(mag) Time Alt. Az. Time Alt. Az. Time Alt. Az.
14 Oct 12.3 00:52:44 10° S 00:59:56 26° SE 01:08:27 15° E visible
14 Oct 11.9 03:09:39 10° WSW 03:20:35 62° SSE 03:21:09 62° SSE visible
14 Oct 13.1 05:29:51 10° W 06:07:59 11° ESE 06:08:15 10° ESE visible
14 Oct 13.2 08:20:46 40° SSE 08:20:46 40° SSE 08:33:18 10° SE visible
14 Oct 13.3 10:33:33 29° SW 10:35:31 29° SW 10:52:17 10° S visible
15 Oct 12.0 01:12:29 10° SSW 01:20:17 34° SE 01:28:08 20° E visible
15 Oct 11.9 03:30:23 10° WSW 03:40:50 67° S 03:40:50 67° S visible
15 Oct 13.3 05:50:56 10° W 06:28:28 13° ESE 06:29:45 10° ESE visible
15 Oct 13.3 08:41:15 38° SSE 08:41:15 38° SSE 08:53:49 10° SE visible
15 Oct 13.5 10:54:01 22° SW 10:56:11 22° SW 11:10:40 10° S visible
16 Oct 11.8 01:32:37 10° SW 01:40:50 43° SE 01:47:47 27° E visible
16 Oct 12.0 03:51:13 10° WSW 04:00:28 63° SW 04:00:28 63° SW visible
16 Oct 13.5 06:12:03 10° W 06:48:55 14° ESE 06:51:06 10° ESE visible
16 Oct 13.3 09:01:41 34° S 09:01:41 34° S 09:13:58 10° SSE visible
16 Oct 13.7 11:14:27 15° WSW 11:16:49 16° SW 11:27:29 10° SSW visible
17 Oct 11.7 01:52:59 10° SW 02:01:32 51° SSE 02:07:23 35° ESE visible
17 Oct 12.1 04:12:09 10° W 04:20:04 54° WSW 04:20:04 54° WSW visible
17 Oct 13.7 07:09:17 16° SE 07:09:17 16° SE 07:12:13 10° SE visible
17 Oct 13.4 09:22:04 30° S 09:22:04 30° S 09:33:40 10° SSE visible
18 Oct 11.6 02:13:33 10° SW 02:22:25 59° SSE 02:26:57 44° ESE visible
18 Oct 12.4 04:33:06 10° W 04:39:39 44° WSW 04:39:39 44° WSW visible
18 Oct 13.9 07:29:36 17° SE 07:29:36 17° SE 07:33:04 10° SE visible
18 Oct 13.6 09:42:21 25° SSW 09:42:21 25° SSW 09:52:48 10° S visible
19 Oct 11.8 00:16:44 10° SSW 00:22:56 30° SE 00:32:50 10° E visible
19 Oct 11.6 02:34:15 10° WSW 02:43:26 65° SSE 02:46:30 54° ESE visible
19 Oct 12.7 04:54:06 10° W 04:59:11 34° W 04:59:11 34° W visible
19 Oct 13.9 07:49:49 17° SSE 07:49:49 17° SSE 07:53:35 10° SE visible
19 Oct 13.7 10:02:34 19° SSW 10:02:34 19° SSW 10:11:02 10° S visible
20 Oct 11.6 00:36:50 10° SSW 00:43:26 38° SSE 00:53:21 13° E visible
20 Oct 11.6 02:55:02 10° WSW 03:04:33 69° S 03:06:02 65° SE visible
20 Oct 13.0 05:15:08 10° W 05:18:43 25° W 05:18:43 25° W visible
20 Oct 13.9 08:09:57 17° SSE 08:09:57 17° SSE 08:13:44 10° SSE visible
20 Oct 13.9 10:22:41 13° SSW 10:22:41 13° SSW 10:27:35 10° SSW visible
21 Oct 11.4 00:57:11 10° SW 01:04:06 47° SSE 01:12:53 19° E visible
21 Oct 11.6 03:15:54 10° W 03:25:34 70° S 03:25:34 70° S visible
21 Oct 13.2 05:36:13 10° W 05:38:15 18° W 05:38:15 18° W visible
21 Oct 13.9 08:30:00 16° SSE 08:30:00 16° SSE 08:33:23 10° SSE visible
22 Oct 11.3 01:17:44 10° SW 01:24:55 55° SSE 01:32:25 25° E visible
22 Oct 11.7 03:36:49 10° W 03:45:06 63° SW 03:45:06 63° SW visible
22 Oct 13.5 05:57:23 10° W 06:37:14 - SE 05:57:46 11° W visible
22 Oct 14.0 08:49:58 13° S 08:49:58 13° S 08:52:23 10° S visible
23 Oct 11.2 01:38:24 10° WSW 01:45:51 62° SSE 01:51:56 33° E visible
23 Oct 12.0 03:57:45 10° W 04:04:37 51° WSW 04:04:37 51° WSW visible
23 Oct13.706:57:06SE06:57:06SE06:17:19Wvisible
23 Oct 14.1 09:09:49 11° S 09:09:49 11° S 09:10:24 10° S visible
